Find Starlink 33916

NORAD ID: 63792 Int'l Des: 2025-091 Owner: SPXS Country: US Constellation: starlink operational
LEOCIRCULAR

Live Position

Loading 3D Globe...

About Starlink 33916

Description loading...

Upcoming Passes

Passes for default location (London). Set your location on the main map for personalized predictions.

Altitude History

Loading altitude history...

Two-Line Element Set

1 63792U 25091T 26104.02843434 .00013704 00000-0 50640-3 0 9998
2 63792 43.0031 213.2281 0002077 273.8579 86.2035 15.27591867 54303
Epoch: Apr 14, 2026 • Age: 9 hours

Current Status

Altitude 491.8 km
Velocity 7.62 km/s
Sub-Earth Point -34.70°S, 92.78°E
Launch Date May 2, 2025
Age 0.9 years
Type internet

Technical Details

Classification Payload
Mass 575.00 kg
Dry Mass 530.00 kg
Total Mass 575.00 kg
Length 0.30 m
Diameter 4.10 m
Span 29.00 m
Shape Box + pan
Manufacturer SPXS
Bus Type Starlink V2MO
Phase Status In Orbit
Owner/State SPXS/US

Most Searched